| time (UTC) | temp C | wind direction | speed KPH | gust KPH | rain 1hr cm | rain 24hr cm | rain mn cm | humidity % | barometer mb |
| 20260510015356 | 17 | 119 | 0.0 | 3.2 | 0.00 | 0.00 | 0.00 | 61 | 1019.2 |
| 20260510014851 | 17 | 100 | 1.6 | 1.6 | 0.00 | 0.00 | 0.00 | 61 | 1019.6 |
| 20260510014349 | 17 | 128 | 0.0 | 0.0 | 0.00 | 0.00 | 0.00 | 57 | 1019.6 |
| 20260510013845 | 17 | 118 | 0.0 | 0.0 | 0.00 | 0.00 | 0.00 | 59 | 1019.6 |
| 20260510013340 | 18 | 111 | 1.6 | 1.6 | 0.00 | 0.00 | 0.00 | 57 | 1019.6 |
| 20260510012836 | 18 | 162 | 1.6 | 3.2 | 0.00 | 0.00 | 0.00 | 55 | 1019.9 |
| 20260510012335 | 18 | 127 | 0.0 | 0.0 | 0.00 | 0.00 | 0.00 | 59 | 1019.9 |
| 20260510011831 | 17 | 122 | 0.0 | 0.0 | 0.00 | 0.00 | 0.00 | 60 | 1020.2 |
| 20260510011326 | 17 | 132 | 0.0 | 1.6 | 0.00 | 0.00 | 0.00 | 59 | 1020.2 |
| 20260510010823 | 17 | 122 | 0.0 | 0.0 | 0.00 | 0.00 | 0.00 | 59 | 1020.2 |
| 20260510010320 | 17 | 156 | 0.0 | 1.6 | 0.00 | 0.00 | 0.00 | 60 | 1020.2 |
| 20260510005817 | 17 | 146 | 0.0 | 4.8 | 0.00 | 0.00 | 0.00 | 61 | 1020.2 |
| 20260510005313 | 17 | 181 | 1.6 | 3.2 | 0.00 | 0.00 | 0.00 | 60 | 1020.2 |
| 20260510004811 | 16 | 133 | 0.0 | 3.2 | 0.00 | 0.00 | 0.00 | 62 | 1020.2 |
| 20260510004308 | 17 | 71 | 1.6 | 3.2 | 0.00 | 0.00 | 0.00 | 61 | 1020.2 |
| 20260510003805 | 17 | 224 | 1.6 | 1.6 | 0.00 | 0.00 | 0.00 | 62 | 1020.2 |
| 20260510003302 | 16 | 66 | 1.6 | 3.2 | 0.00 | 0.00 | 0.00 | 61 | 1020.6 |
| 20260510002801 | 16 | 211 | 1.6 | 3.2 | 0.00 | 0.00 | 0.00 | 62 | 1020.6 |
| 20260510002259 | 17 | 156 | 0.0 | 1.6 | 0.00 | 0.00 | 0.00 | 61 | 1020.6 |
| 20260510001755 | 17 | 206 | 1.6 | 1.6 | 0.00 | 0.00 | 0.00 | 61 | 1020.6 |
| 20260510001253 | 17 | 121 | 1.6 | 1.6 | 0.00 | 0.00 | 0.00 | 60 | 1020.6 |
| 20260510000748 | 17 | 121 | 0.0 | 1.6 | 0.00 | 0.00 | 0.00 | 59 | 1020.6 |
| 20260510000248 | 17 | 110 | 0.0 | 1.6 | 0.00 | 0.00 | 0.00 | 61 | 1020.6 |
| 20260509235744 | 17 | 150 | 1.6 | 1.6 | 0.00 | 0.00 | 0.00 | 61 | 1020.9 |
| 20260509235240 | 17 | 296 | 3.2 | 3.2 | 0.00 | 0.00 | 0.00 | 60 | 1020.9 |
| 20260509234735 | 17 | 87 | 3.2 | 3.2 | 0.00 | 0.00 | 0.00 | 61 | 1020.9 |
| 20260509234227 | 17 | 105 | 0.0 | 1.6 | 0.00 | 0.00 | 0.00 | 61 | 1020.9 |
| 20260509233725 | 17 | 88 | 1.6 | 3.2 | 0.00 | 0.00 | 0.00 | 61 | 1021.3 |
| 20260509233223 | 16 | 93 | 1.6 | 3.2 | 0.00 | 0.00 | 0.00 | 62 | 1020.9 |
| 20260509232718 | 16 | 124 | 1.6 | 6.4 | 0.00 | 0.00 | 0.00 | 62 | 1021.3 |
| 20260509232216 | 17 | 61 | 3.2 | 3.2 | 0.00 | 0.00 | 0.00 | 60 | 1021.3 |
| 20260509231712 | 17 | 264 | 1.6 | 6.4 | 0.00 | 0.00 | 0.00 | 60 | 1021.3 |
| 20260509231209 | 18 | 111 | 0.0 | 0.0 | 0.00 | 0.00 | 0.00 | 58 | 1021.3 |
| 20260509230706 | 17 | 109 | 1.6 | 4.8 | 0.00 | 0.00 | 0.00 | 60 | 1021.3 |
| 20260509230157 | 17 | 331 | 1.6 | 4.8 | 0.00 | 0.00 | 0.00 | 63 | 1021.3 |
| 20260509225653 | 17 | 81 | 1.6 | 3.2 | 0.00 | 0.00 | 0.00 | 64 | 1021.3 |
| 20260509225149 | 17 | 340 | 3.2 | 4.8 | 0.00 | 0.00 | 0.00 | 63 | 1021.6 |
| 20260509224645 | 16 | 43 | 1.6 | 3.2 | 0.00 | 0.00 | 0.00 | 65 | 1021.6 |
| 20260509224142 | 16 | 99 | 1.6 | 3.2 | 0.00 | 0.00 | 0.00 | 65 | 1021.6 |
| 20260509223639 | 17 | 6 | 3.2 | 6.4 | 0.00 | 0.00 | 0.00 | 64 | 1021.6 |
| 20260509223136 | 16 | 113 | 0.0 | 3.2 | 0.00 | 0.00 | 0.00 | 68 | 1021.9 |
| 20260509222633 | 16 | 106 | 0.0 | 3.2 | 0.00 | 0.00 | 0.00 | 69 | 1021.9 |
| 20260509222128 | 16 | 89 | 1.6 | 4.8 | 0.00 | 0.00 | 0.00 | 68 | 1022.3 |
| 20260509221624 | 16 | 8 | 3.2 | 4.8 | 0.00 | 0.00 | 0.00 | 67 | 1022.3 |
| 20260509221120 | 16 | 63 | 0.0 | 4.8 | 0.00 | 0.00 | 0.00 | 68 | 1022.3 |
| 20260509220616 | 16 | 100 | 3.2 | 6.4 | 0.00 | 0.00 | 0.00 | 69 | 1022.3 |
| 20260509220113 | 15 | 54 | 3.2 | 9.7 | 0.00 | 0.00 | 0.00 | 70 | 1022.3 |
| 20260509215609 | 16 | 88 | 1.6 | 4.8 | 0.00 | 0.00 | 0.00 | 68 | 1022.3 |
| 20260509215106 | 16 | 273 | 3.2 | 4.8 | 0.00 | 0.00 | 0.00 | 68 | 1022.3 |
| 20260509214603 | 16 | 30 | 1.6 | 4.8 | 0.00 | 0.00 | 0.00 | 68 | 1022.3 |
| 20260509214100 | 17 | 57 | 3.2 | 4.8 | 0.00 | 0.00 | 0.00 | 66 | 1022.3 |
| 20260509213555 | 16 | 346 | 3.2 | 11.3 | 0.00 | 0.00 | 0.00 | 67 | 1022.3 |
| 20260509213052 | 17 | 307 | 3.2 | 3.2 | 0.00 | 0.00 | 0.00 | 63 | 1022.3 |
| 20260509212550 | 17 | 89 | 1.6 | 3.2 | 0.00 | 0.00 | 0.00 | 66 | 1022.3 |
| 20260509212046 | 16 | 312 | 3.2 | 4.8 | 0.00 | 0.00 | 0.00 | 67 | 1022.6 |
| 20260509211542 | 16 | 119 | 3.2 | 11.3 | 0.00 | 0.00 | 0.00 | 68 | 1022.6 |
| 20260509211039 | 16 | 152 | 3.2 | 4.8 | 0.00 | 0.00 | 0.00 | 69 | 1022.6 |
| 20260509210535 | 16 | 107 | 0.0 | 4.8 | 0.00 | 0.00 | 0.00 | 67 | 1022.6 |
| 20260509210031 | 16 | 99 | 1.6 | 4.8 | 0.00 | 0.00 | 0.00 | 68 | 1022.6 |
| 20260509205526 | 16 | 16 | 3.2 | 4.8 | 0.00 | 0.00 | 0.00 | 67 | 1022.9 |
| 20260509205022 | 16 | 102 | 1.6 | 6.4 | 0.00 | 0.00 | 0.00 | 68 | 1022.9 |
| 20260509204519 | 16 | 174 | 0.0 | 9.7 | 0.00 | 0.00 | 0.00 | 68 | 1022.6 |
| 20260509204015 | 16 | 40 | 3.2 | 6.4 | 0.00 | 0.00 | 0.00 | 67 | 1022.9 |
| 20260509203511 | 16 | 71 | 3.2 | 4.8 | 0.00 | 0.00 | 0.00 | 66 | 1022.9 |
| 20260509203009 | 17 | 54 | 1.6 | 3.2 | 0.00 | 0.00 | 0.00 | 65 | 1022.6 |
| 20260509202503 | 17 | 88 | 3.2 | 6.4 | 0.00 | 0.00 | 0.00 | 64 | 1022.9 |
| 20260509201959 | 17 | 47 | 3.2 | 3.2 | 0.00 | 0.00 | 0.00 | 63 | 1022.6 |
| 20260509201454 | 17 | 69 | 1.6 | 4.8 | 0.00 | 0.00 | 0.00 | 65 | 1022.6 |
| 20260509200952 | 17 | 76 | 3.2 | 3.2 | 0.00 | 0.00 | 0.00 | 65 | 1022.6 |
| 20260509200447 | 17 | 42 | 3.2 | 4.8 | 0.00 | 0.00 | 0.00 | 63 | 1022.9 |
| 20260509195943 | 17 | 112 | 1.6 | 3.2 | 0.00 | 0.00 | 0.00 | 66 | 1022.9 |
| 20260509195439 | 17 | 50 | 0.0 | 1.6 | 0.00 | 0.00 | 0.00 | 65 | 1022.9 |
| 20260509194938 | 16 | 61 | 3.2 | 3.2 | 0.00 | 0.00 | 0.00 | 68 | 1022.9 |
| 20260509194434 | 17 | 48 | 1.6 | 6.4 | 0.00 | 0.00 | 0.00 | 68 | 1022.9 |
| 20260509193931 | 17 | 45 | 6.4 | 6.4 | 0.00 | 0.00 | 0.00 | 66 | 1022.9 |
| 20260509193431 | 17 | 53 | 1.6 | 4.8 | 0.00 | 0.00 | 0.00 | 67 | 1022.9 |
| 20260509192927 | 17 | 101 | 0.0 | 1.6 | 0.00 | 0.00 | 0.00 | 67 | 1022.9 |
| 20260509192424 | 17 | 113 | 1.6 | 4.8 | 0.00 | 0.00 | 0.00 | 67 | 1022.9 |
| 20260509191919 | 18 | 88 | 0.0 | 3.2 | 0.00 | 0.00 | 0.00 | 63 | 1023.3 |
| 20260509191414 | 17 | 101 | 1.6 | 4.8 | 0.00 | 0.00 | 0.00 | 61 | 1023.3 |
| 20260509190911 | 17 | 105 | 0.0 | 6.4 | 0.00 | 0.00 | 0.00 | 63 | 1023.3 |
| 20260509190408 | 18 | 73 | 1.6 | 4.8 | 0.00 | 0.00 | 0.00 | 61 | 1023.3 |
| 20260509185906 | 17 | 118 | 3.2 | 9.7 | 0.00 | 0.00 | 0.00 | 63 | 1023.3 |
| 20260509185403 | 17 | 177 | 8.0 | 9.7 | 0.00 | 0.00 | 0.00 | 62 | 1023.6 |
| 20260509184859 | 17 | 107 | 0.0 | 6.4 | 0.00 | 0.00 | 0.00 | 66 | 1023.3 |
| 20260509184356 | 17 | 113 | 4.8 | 4.8 | 0.00 | 0.00 | 0.00 | 64 | 1023.3 |
| 20260509183854 | 16 | 68 | 0.0 | 3.2 | 0.00 | 0.00 | 0.00 | 69 | 1023.3 |
| 20260509183348 | 16 | 100 | 0.0 | 4.8 | 0.00 | 0.00 | 0.00 | 70 | 1023.3 |
| 20260509182844 | 17 | 102 | 1.6 | 3.2 | 0.00 | 0.00 | 0.00 | 68 | 1023.3 |
| 20260509182342 | 17 | 105 | 3.2 | 4.8 | 0.00 | 0.00 | 0.00 | 66 | 1023.3 |
| 20260509181839 | 17 | 158 | 1.6 | 4.8 | 0.00 | 0.00 | 0.00 | 66 | 1023.3 |
| 20260509181336 | 17 | 154 | 4.8 | 6.4 | 0.00 | 0.00 | 0.00 | 67 | 1023.6 |
| 20260509180833 | 16 | 141 | 0.0 | 3.2 | 0.00 | 0.00 | 0.00 | 67 | 1023.6 |
| 20260509180329 | 17 | 111 | 1.6 | 3.2 | 0.00 | 0.00 | 0.00 | 67 | 1023.6 |
| 20260509175826 | 16 | 107 | 3.2 | 6.4 | 0.00 | 0.00 | 0.00 | 68 | 1023.6 |
| 20260509175322 | 16 | 192 | 6.4 | 9.7 | 0.00 | 0.00 | 0.00 | 67 | 1023.6 |
| 20260509174818 | 16 | 104 | 1.6 | 6.4 | 0.00 | 0.00 | 0.00 | 68 | 1023.3 |
| 20260509174314 | 16 | 143 | 1.6 | 6.4 | 0.00 | 0.00 | 0.00 | 68 | 1023.6 |
| 20260509173810 | 16 | 91 | 0.0 | 1.6 | 0.00 | 0.00 | 0.00 | 67 | 1023.6 |
| 20260509173306 | 16 | 190 | 0.0 | 4.8 | 0.00 | 0.00 | 0.00 | 70 | 1023.6 |
| 20260509172802 | 15 | 94 | 3.2 | 4.8 | 0.00 | 0.00 | 0.00 | 70 | 1023.6 |
| 20260509172259 | 15 | 197 | 4.8 | 4.8 | 0.00 | 0.00 | 0.00 | 70 | 1023.6 |
| 20260509171755 | 15 | 169 | 1.6 | 6.4 | 0.00 | 0.00 | 0.00 | 70 | 1023.6 |
| 20260509171251 | 15 | 108 | 1.6 | 1.6 | 0.00 | 0.00 | 0.00 | 70 | 1023.6 |
| 20260509170747 | 15 | 107 | 1.6 | 9.7 | 0.00 | 0.00 | 0.00 | 70 | 1023.6 |
| 20260509170243 | 15 | 101 | 1.6 | 3.2 | 0.00 | 0.00 | 0.00 | 70 | 1024.0 |
| 20260509165742 | 15 | 101 | 3.2 | 4.8 | 0.00 | 0.00 | 0.00 | 71 | 1024.0 |
| 20260509165238 | 14 | 173 | 4.8 | 6.4 | 0.00 | 0.00 | 0.00 | 71 | 1023.6 |
| 20260509164734 | 13 | 164 | 1.6 | 4.8 | 0.00 | 0.00 | 0.00 | 72 | 1023.6 |
| 20260509164229 | 13 | 100 | 0.0 | 1.6 | 0.00 | 0.00 | 0.00 | 74 | 1023.6 |
| 20260509163727 | 13 | 190 | 3.2 | 4.8 | 0.00 | 0.00 | 0.00 | 73 | 1023.6 |
| 20260509163223 | 13 | 126 | 0.0 | 0.0 | 0.00 | 0.00 | 0.00 | 73 | 1024.0 |
| 20260509162721 | 13 | 111 | 3.2 | 6.4 | 0.00 | 0.00 | 0.00 | 74 | 1023.6 |
| 20260509162216 | 13 | 67 | 0.0 | 1.6 | 0.00 | 0.00 | 0.00 | 74 | 1024.0 |
| 20260509161712 | 13 | 104 | 0.0 | 1.6 | 0.00 | 0.00 | 0.00 | 74 | 1024.0 |
| 20260509161209 | 13 | 113 | 0.0 | 1.6 | 0.00 | 0.00 | 0.00 | 75 | 1024.0 |
| 20260509160704 | 13 | 112 | 1.6 | 3.2 | 0.00 | 0.00 | 0.00 | 75 | 1024.0 |
| 20260509160200 | 12 | 101 | 1.6 | 3.2 | 0.00 | 0.00 | 0.00 | 76 | 1024.0 |
| 20260509155656 | 12 | 188 | 4.8 | 4.8 | 0.00 | 0.00 | 0.00 | 76 | 1024.0 |
| 20260509155152 | 12 | 122 | 3.2 | 3.2 | 0.00 | 0.00 | 0.00 | 76 | 1024.0 |
| 20260509154648 | 12 | 111 | 0.0 | 0.0 | 0.00 | 0.00 | 0.00 | 77 | 1024.0 |
| 20260509154146 | 12 | 138 | 1.6 | 4.8 | 0.00 | 0.00 | 0.00 | 77 | 1024.3 |
| 20260509153642 | 12 | 197 | 1.6 | 6.4 | 0.00 | 0.00 | 0.00 | 77 | 1024.3 |
| 20260509153139 | 12 | 151 | 1.6 | 3.2 | 0.00 | 0.00 | 0.00 | 78 | 1024.3 |
| 20260509152634 | 11 | 122 | 1.6 | 3.2 | 0.00 | 0.00 | 0.00 | 78 | 1024.0 |
| 20260509152132 | 11 | 112 | 3.2 | 3.2 | 0.00 | 0.00 | 0.00 | 79 | 1024.0 |
| 20260509151628 | 11 | 169 | 1.6 | 4.8 | 0.00 | 0.00 | 0.00 | 79 | 1024.0 |
| 20260509151126 | 11 | 131 | 1.6 | 3.2 | 0.00 | 0.00 | 0.00 | 80 | 1024.0 |
| 20260509150624 | 11 | 197 | 3.2 | 4.8 | 0.00 | 0.00 | 0.00 | 80 | 1024.0 |
| 20260509150122 | 11 | 100 | 0.0 | 3.2 | 0.00 | 0.00 | 0.00 | 81 | 1024.0 |
| 20260509145617 | 11 | 112 | 0.0 | 1.6 | 0.00 | 0.00 | 0.00 | 82 | 1024.3 |
| 20260509145113 | 11 | 131 | 0.0 | 1.6 | 0.00 | 0.00 | 0.00 | 82 | 1024.3 |
| 20260509144610 | 11 | 125 | 1.6 | 3.2 | 0.00 | 0.00 | 0.00 | 82 | 1024.3 |
| 20260509144107 | 10 | 167 | 3.2 | 4.8 | 0.00 | 0.00 | 0.00 | 82 | 1024.3 |
| 20260509143604 | 10 | 111 | 0.0 | 3.2 | 0.00 | 0.00 | 0.00 | 83 | 1024.3 |
| 20260509143102 | 10 | 115 | 0.0 | 3.2 | 0.00 | 0.00 | 0.00 | 83 | 1024.3 |
| 20260509142556 | 10 | 110 | 0.0 | 1.6 | 0.00 | 0.00 | 0.00 | 83 | 1024.3 |
| 20260509142053 | 10 | 109 | 0.0 | 3.2 | 0.00 | 0.00 | 0.00 | 83 | 1024.3 |
| 20260509141549 | 10 | 106 | 0.0 | 0.0 | 0.00 | 0.00 | 0.00 | 83 | 1024.3 |
| 20260509141046 | 10 | 140 | 0.0 | 1.6 | 0.00 | 0.00 | 0.00 | 83 | 1024.3 |
| 20260509140543 | 10 | 119 | 0.0 | 3.2 | 0.00 | 0.00 | 0.00 | 83 | 1024.3 |
| 20260509140041 | 10 | 121 | 0.0 | 1.6 | 0.00 | 0.00 | 0.00 | 84 | 1024.3 |
| 20260509135538 | 10 | 139 | 1.6 | 1.6 | 0.00 | 0.00 | 0.00 | 85 | 1024.7 |
| 20260509135035 | 10 | 140 | 1.6 | 1.6 | 0.00 | 0.00 | 0.00 | 85 | 1024.7 |
| 20260509134532 | 10 | 117 | 0.0 | 0.0 | 0.00 | 0.00 | 0.00 | 86 | 1024.7 |
| 20260509134030 | 10 | 119 | 0.0 | 0.0 | 0.00 | 0.00 | 0.00 | 86 | 1024.7 |
| 20260509133526 | 10 | 122 | 0.0 | 0.0 | 0.00 | 0.00 | 0.00 | 86 | 1024.7 |
| 20260509133024 | 10 | 116 | 0.0 | 0.0 | 0.00 | 0.00 | 0.00 | 86 | 1024.3 |
| 20260509132522 | 10 | 114 | 0.0 | 0.0 | 0.00 | 0.00 | 0.00 | 86 | 1024.7 |
| 20260509132020 | 10 | 112 | 0.0 | 0.0 | 0.00 | 0.00 | 0.00 | 86 | 1024.3 |
| 20260509131516 | 9 | 112 | 0.0 | 0.0 | 0.00 | 0.00 | 0.00 | 86 | 1024.3 |
| 20260509131013 | 10 | 112 | 0.0 | 0.0 | 0.00 | 0.00 | 0.00 | 86 | 1024.3 |
| 20260509130508 | 9 | 108 | 0.0 | 0.0 | 0.00 | 0.00 | 0.00 | 86 | 1024.7 |
| 20260509130006 | 9 | 120 | 0.0 | 0.0 | 0.00 | 0.00 | 0.00 | 86 | 1024.3 |
| 20260509125502 | 9 | 122 | 0.0 | 0.0 | 0.00 | 0.00 | 0.00 | 86 | 1024.3 |
| 20260509124958 | 9 | 106 | 0.0 | 0.0 | 0.00 | 0.00 | 0.00 | 86 | 1024.7 |
| 20260509124455 | 9 | 108 | 0.0 | 0.0 | 0.00 | 0.00 | 0.00 | 86 | 1024.3 |
| 20260509123952 | 10 | 107 | 0.0 | 0.0 | 0.00 | 0.00 | 0.00 | 86 | 1024.3 |
| 20260509123450 | 10 | 107 | 0.0 | 0.0 | 0.00 | 0.00 | 0.00 | 86 | 1024.3 |
| 20260509122945 | 10 | 113 | 0.0 | 0.0 | 0.00 | 0.00 | 0.00 | 86 | 1024.7 |
| 20260509122443 | 10 | 113 | 0.0 | 0.0 | 0.00 | 0.00 | 0.00 | 86 | 1024.3 |
| 20260509121939 | 10 | 112 | 0.0 | 0.0 | 0.00 | 0.00 | 0.00 | 85 | 1024.7 |
| 20260509121436 | 10 | 115 | 0.0 | 0.0 | 0.00 | 0.00 | 0.00 | 85 | 1024.7 |
| 20260509120934 | 10 | 112 | 0.0 | 0.0 | 0.00 | 0.00 | 0.00 | 85 | 1024.7 |
| 20260509120432 | 10 | 114 | 0.0 | 0.0 | 0.00 | 0.00 | 0.00 | 85 | 1024.7 |
| 20260509115930 | 10 | 112 | 0.0 | 0.0 | 0.00 | 0.00 | 0.00 | 85 | 1024.7 |
| 20260509115427 | 10 | 107 | 0.0 | 0.0 | 0.00 | 0.00 | 0.00 | 84 | 1024.7 |
| 20260509114924 | 10 | 108 | 0.0 | 0.0 | 0.00 | 0.00 | 0.00 | 84 | 1024.7 |
| 20260509114423 | 10 | 121 | 0.0 | 0.0 | 0.00 | 0.00 | 0.00 | 84 | 1024.7 |
| 20260509113922 | 10 | 133 | 0.0 | 0.0 | 0.00 | 0.00 | 0.00 | 84 | 1024.7 |
| 20260509113419 | 10 | 111 | 0.0 | 0.0 | 0.00 | 0.00 | 0.00 | 83 | 1024.7 |
| 20260509112916 | 10 | 110 | 0.0 | 0.0 | 0.00 | 0.00 | 0.00 | 83 | 1024.7 |
| 20260509112413 | 10 | 108 | 0.0 | 3.2 | 0.00 | 0.00 | 0.00 | 83 | 1024.7 |
| 20260509111910 | 10 | 115 | 3.2 | 3.2 | 0.00 | 0.00 | 0.00 | 84 | 1024.7 |
| 20260509111407 | 10 | 130 | 1.6 | 1.6 | 0.00 | 0.00 | 0.00 | 84 | 1024.7 |
| 20260509110904 | 10 | 131 | 1.6 | 1.6 | 0.00 | 0.00 | 0.00 | 85 | 1024.7 |
| 20260509110400 | 10 | 131 | 0.0 | 1.6 | 0.00 | 0.00 | 0.00 | 85 | 1024.7 |
| 20260509105859 | 10 | 134 | 0.0 | 3.2 | 0.00 | 0.00 | 0.00 | 84 | 1024.7 |
| 20260509105356 | 10 | 115 | 3.2 | 4.8 | 0.00 | 0.00 | 0.00 | 84 | 1024.7 |
| 20260509104853 | 10 | 150 | 1.6 | 3.2 | 0.00 | 0.00 | 0.00 | 84 | 1025.1 |
| 20260509104349 | 10 | 111 | 1.6 | 1.6 | 0.00 | 0.00 | 0.00 | 84 | 1024.7 |
| 20260509103847 | 10 | 124 | 0.0 | 1.6 | 0.00 | 0.00 | 0.00 | 84 | 1024.7 |
| 20260509103344 | 10 | 121 | 1.6 | 4.8 | 0.00 | 0.00 | 0.00 | 84 | 1024.7 |
| 20260509102843 | 10 | 144 | 3.2 | 3.2 | 0.00 | 0.00 | 0.00 | 83 | 1024.7 |
| 20260509102340 | 10 | 162 | 4.8 | 4.8 | 0.00 | 0.00 | 0.00 | 83 | 1024.7 |
| 20260509101835 | 10 | 156 | 3.2 | 3.2 | 0.00 | 0.00 | 0.00 | 83 | 1024.7 |
| 20260509101332 | 10 | 118 | 1.6 | 3.2 | 0.00 | 0.00 | 0.00 | 84 | 1024.7 |
| 20260509100830 | 10 | 125 | 1.6 | 3.2 | 0.00 | 0.00 | 0.00 | 84 | 1025.1 |
| 20260509100327 | 10 | 130 | 0.0 | 4.8 | 0.00 | 0.00 | 0.00 | 85 | 1025.1 |
| 20260509095823 | 9 | 119 | 0.0 | 1.6 | 0.00 | 0.00 | 0.00 | 86 | 1025.1 |
| 20260509095321 | 9 | 136 | 1.6 | 1.6 | 0.00 | 0.00 | 0.00 | 86 | 1024.7 |
| 20260509094818 | 10 | 156 | 1.6 | 1.6 | 0.00 | 0.00 | 0.00 | 86 | 1025.1 |
| 20260509094314 | 10 | 127 | 0.0 | 0.0 | 0.00 | 0.00 | 0.00 | 86 | 1025.1 |
| 20260509093812 | 10 | 113 | 0.0 | 0.0 | 0.00 | 0.00 | 0.00 | 86 | 1024.7 |
| 20260509093309 | 10 | 121 | 0.0 | 0.0 | 0.00 | 0.00 | 0.00 | 85 | 1024.7 |
| 20260509092808 | 10 | 122 | 0.0 | 1.6 | 0.00 | 0.00 | 0.00 | 85 | 1025.1 |
| 20260509092306 | 10 | 123 | 0.0 | 1.6 | 0.00 | 0.00 | 0.00 | 84 | 1025.1 |
| 20260509091803 | 10 | 124 | 1.6 | 1.6 | 0.00 | 0.00 | 0.00 | 84 | 1024.7 |
| 20260509091259 | 10 | 123 | 0.0 | 0.0 | 0.00 | 0.00 | 0.00 | 83 | 1024.7 |
| 20260509090757 | 10 | 123 | 0.0 | 0.0 | 0.00 | 0.00 | 0.00 | 83 | 1024.7 |
| 20260509090254 | 10 | 123 | 0.0 | 0.0 | 0.00 | 0.00 | 0.00 | 83 | 1025.1 |
| 20260509085751 | 10 | 123 | 0.0 | 0.0 | 0.00 | 0.00 | 0.00 | 83 | 1025.1 |
| 20260509085249 | 10 | 123 | 0.0 | 0.0 | 0.00 | 0.00 | 0.00 | 83 | 1025.1 |
| 20260509084745 | 10 | 123 | 0.0 | 0.0 | 0.00 | 0.00 | 0.00 | 83 | 1025.1 |
| 20260509084242 | 10 | 118 | 0.0 | 1.6 | 0.00 | 0.00 | 0.00 | 82 | 1025.1 |
| 20260509083740 | 10 | 118 | 0.0 | 1.6 | 0.00 | 0.00 | 0.00 | 82 | 1025.1 |
| 20260509083236 | 10 | 118 | 0.0 | 0.0 | 0.00 | 0.00 | 0.00 | 82 | 1025.1 |
| 20260509082733 | 10 | 118 | 0.0 | 1.6 | 0.00 | 0.00 | 0.00 | 82 | 1025.4 |
| 20260509082229 | 10 | 113 | 0.0 | 0.0 | 0.00 | 0.00 | 0.00 | 82 | 1025.4 |
| 20260509081726 | 10 | 112 | 0.0 | 0.0 | 0.00 | 0.00 | 0.00 | 81 | 1025.4 |
| 20260509081224 | 10 | 112 | 0.0 | 0.0 | 0.00 | 0.00 | 0.00 | 81 | 1025.4 |
| 20260509080722 | 10 | 112 | 0.0 | 0.0 | 0.00 | 0.00 | 0.00 | 81 | 1025.1 |
| 20260509080219 | 10 | 112 | 0.0 | 0.0 | 0.00 | 0.00 | 0.00 | 81 | 1025.4 |
| 20260509075718 | 10 | 112 | 0.0 | 0.0 | 0.00 | 0.00 | 0.00 | 81 | 1025.4 |
| 20260509075215 | 10 | 112 | 0.0 | 0.0 | 0.00 | 0.00 | 0.00 | 81 | 1025.4 |
| 20260509074711 | 10 | 105 | 0.0 | 0.0 | 0.00 | 0.00 | 0.00 | 81 | 1025.1 |
| 20260509074209 | 10 | 105 | 0.0 | 0.0 | 0.00 | 0.00 | 0.00 | 81 | 1025.4 |
| 20260509073705 | 10 | 105 | 0.0 | 0.0 | 0.00 | 0.00 | 0.00 | 81 | 1025.1 |
| 20260509073201 | 10 | 105 | 0.0 | 0.0 | 0.00 | 0.00 | 0.00 | 81 | 1025.1 |
| 20260509072658 | 10 | 105 | 0.0 | 0.0 | 0.00 | 0.00 | 0.00 | 81 | 1025.1 |
| 20260509072155 | 10 | 105 | 0.0 | 0.0 | 0.00 | 0.00 | 0.00 | 81 | 1025.1 |
| 20260509071652 | 10 | 105 | 0.0 | 0.0 | 0.00 | 0.00 | 0.00 | 81 | 1025.1 |
| 20260509071149 | 10 | 105 | 0.0 | 0.0 | 0.00 | 0.00 | 0.00 | 81 | 1025.1 |
| 20260509070646 | 10 | 105 | 0.0 | 0.0 | 0.00 | 0.00 | 0.00 | 81 | 1025.1 |
| 20260509070142 | 10 | 105 | 0.0 | 0.0 | 0.00 | 0.00 | 0.00 | 81 | 1025.1 |
| 20260509065638 | 10 | 105 | 0.0 | 0.0 | 0.00 | 0.00 | 0.00 | 81 | 1025.1 |
| 20260509065134 | 10 | 105 | 0.0 | 0.0 | 0.00 | 0.00 | 0.00 | 81 | 1025.1 |
| 20260509064631 | 10 | 105 | 0.0 | 0.0 | 0.00 | 0.00 | 0.00 | 81 | 1025.1 |
| 20260509064129 | 10 | 105 | 0.0 | 0.0 | 0.00 | 0.00 | 0.00 | 82 | 1025.1 |
| 20260509063625 | 10 | 105 | 0.0 | 0.0 | 0.00 | 0.00 | 0.00 | 81 | 1025.1 |
| 20260509063117 | 10 | 100 | 0.0 | 0.0 | 0.00 | 0.00 | 0.00 | 81 | 1025.1 |
| 20260509062614 | 10 | 100 | 0.0 | 0.0 | 0.00 | 0.00 | 0.00 | 81 | 1025.1 |
| 20260509062111 | 10 | 112 | 0.0 | 0.0 | 0.00 | 0.00 | 0.00 | 80 | 1025.1 |
| 20260509061608 | 10 | 96 | 0.0 | 0.0 | 0.00 | 0.00 | 0.00 | 79 | 1025.1 |
| 20260509061105 | 10 | 95 | 0.0 | 0.0 | 0.00 | 0.00 | 0.00 | 79 | 1025.1 |
| 20260509060603 | 10 | 96 | 0.0 | 0.0 | 0.00 | 0.00 | 0.00 | 79 | 1025.1 |
| 20260509060058 | 10 | 93 | 0.0 | 1.6 | 0.00 | 0.00 | 0.00 | 79 | 1025.1 |
| 20260509055554 | 10 | 95 | 0.0 | 1.6 | 0.00 | 0.00 | 0.00 | 79 | 1025.1 |
| 20260509055050 | 10 | 100 | 0.0 | 0.0 | 0.00 | 0.00 | 0.00 | 79 | 1025.1 |
| 20260509054547 | 10 | 100 | 0.0 | 0.0 | 0.00 | 0.00 | 0.00 | 79 | 1025.1 |
| 20260509054045 | 10 | 96 | 0.0 | 1.6 | 0.00 | 0.00 | 0.00 | 79 | 1025.1 |
| 20260509053543 | 10 | 93 | 0.0 | 0.0 | 0.00 | 0.00 | 0.00 | 78 | 1025.4 |
| 20260509053040 | 10 | 90 | 0.0 | 0.0 | 0.00 | 0.00 | 0.00 | 78 | 1025.1 |
| 20260509052538 | 10 | 111 | 0.0 | 3.2 | 0.00 | 0.00 | 0.00 | 79 | 1025.1 |
| 20260509052035 | 10 | 94 | 1.6 | 1.6 | 0.00 | 0.00 | 0.00 | 79 | 1025.1 |
| 20260509051533 | 10 | 95 | 0.0 | 0.0 | 0.00 | 0.00 | 0.00 | 79 | 1025.1 |
| 20260509051030 | 10 | 101 | 0.0 | 1.6 | 0.00 | 0.00 | 0.00 | 79 | 1025.1 |
| 20260509050527 | 10 | 92 | 0.0 | 3.2 | 0.00 | 0.00 | 0.00 | 79 | 1025.1 |
| 20260509050023 | 10 | 93 | 0.0 | 1.6 | 0.00 | 0.00 | 0.00 | 79 | 1025.1 |
| 20260509045520 | 10 | 94 | 0.0 | 1.6 | 0.00 | 0.00 | 0.00 | 79 | 1025.1 |
| 20260509045017 | 10 | 94 | 0.0 | 1.6 | 0.00 | 0.00 | 0.00 | 79 | 1025.1 |
| 20260509044515 | 10 | 74 | 0.0 | 0.0 | 0.00 | 0.00 | 0.00 | 79 | 1025.1 |
| 20260509044013 | 10 | 78 | 0.0 | 1.6 | 0.00 | 0.00 | 0.00 | 78 | 1024.7 |
| 20260509043508 | 10 | 99 | 0.0 | 0.0 | 0.00 | 0.00 | 0.00 | 78 | 1025.1 |
| 20260509043005 | 11 | 96 | 0.0 | 1.6 | 0.00 | 0.00 | 0.00 | 77 | 1025.1 |
| 20260509042501 | 11 | 98 | 0.0 | 0.0 | 0.00 | 0.00 | 0.00 | 77 | 1025.1 |
| 20260509041956 | 11 | 97 | 0.0 | 1.6 | 0.00 | 0.00 | 0.00 | 77 | 1024.7 |
| 20260509041454 | 11 | 97 | 0.0 | 0.0 | 0.00 | 0.00 | 0.00 | 77 | 1024.7 |
| 20260509040952 | 11 | 112 | 0.0 | 0.0 | 0.00 | 0.00 | 0.00 | 77 | 1024.7 |
| 20260509040450 | 11 | 96 | 0.0 | 0.0 | 0.00 | 0.00 | 0.00 | 77 | 1024.7 |
| 20260509035946 | 11 | 99 | 0.0 | 0.0 | 0.00 | 0.00 | 0.00 | 77 | 1024.7 |
| 20260509035443 | 11 | 89 | 0.0 | 3.2 | 0.00 | 0.00 | 0.00 | 76 | 1025.1 |
| 20260509034939 | 11 | 94 | 0.0 | 1.6 | 0.00 | 0.00 | 0.00 | 76 | 1024.7 |
| 20260509034437 | 11 | 82 | 1.6 | 3.2 | 0.00 | 0.00 | 0.00 | 76 | 1024.7 |
| 20260509033934 | 11 | 97 | 0.0 | 3.2 | 0.00 | 0.00 | 0.00 | 76 | 1024.7 |
| 20260509033431 | 11 | 60 | 0.0 | 1.6 | 0.00 | 0.00 | 0.00 | 76 | 1024.7 |
| 20260509032928 | 11 | 87 | 1.6 | 3.2 | 0.00 | 0.00 | 0.00 | 76 | 1024.7 |
| 20260509032425 | 11 | 112 | 0.0 | 0.0 | 0.00 | 0.00 | 0.00 | 76 | 1024.7 |
| 20260509031923 | 11 | 94 | 0.0 | 1.6 | 0.00 | 0.00 | 0.00 | 75 | 1024.7 |
| 20260509031420 | 11 | 75 | 0.0 | 1.6 | 0.00 | 0.00 | 0.00 | 75 | 1024.7 |
| 20260509030917 | 11 | 90 | 1.6 | 1.6 | 0.00 | 0.00 | 0.00 | 74 | 1024.7 |
| 20260509030415 | 11 | 80 | 0.0 | 1.6 | 0.00 | 0.00 | 0.00 | 74 | 1024.3 |
| 20260509025912 | 11 | 110 | 0.0 | 3.2 | 0.00 | 0.00 | 0.00 | 74 | 1024.3 |
| 20260509025408 | 11 | 95 | 0.0 | 1.6 | 0.00 | 0.00 | 0.00 | 73 | 1024.3 |
| 20260509024903 | 11 | 115 | 0.0 | 1.6 | 0.00 | 0.00 | 0.00 | 73 | 1024.7 |
| 20260509024359 | 11 | 317 | 1.6 | 3.2 | 0.00 | 0.00 | 0.00 | 73 | 1024.3 |
| 20260509023856 | 12 | 69 | 1.6 | 3.2 | 0.00 | 0.00 | 0.00 | 71 | 1024.3 |
| 20260509023354 | 12 | 103 | 1.6 | 3.2 | 0.00 | 0.00 | 0.00 | 70 | 1024.0 |
| 20260509022850 | 12 | 106 | 0.0 | 3.2 | 0.00 | 0.00 | 0.00 | 70 | 1024.0 |
| 20260509022347 | 12 | 97 | 1.6 | 4.8 | 0.00 | 0.00 | 0.00 | 69 | 1024.0 |
| 20260509021844 | 12 | 344 | 1.6 | 4.8 | 0.00 | 0.00 | 0.00 | 68 | 1024.0 |
| 20260509021341 | 12 | 79 | 1.6 | 9.7 | 0.00 | 0.00 | 0.00 | 67 | 1024.0 |
| 20260509020839 | 12 | 316 | 3.2 | 6.4 | 0.00 | 0.00 | 0.00 | 67 | 1024.3 |
| 20260509020337 | 13 | 355 | 1.6 | 3.2 | 0.00 | 0.00 | 0.00 | 68 | 1024.0 |
| 20260509015834 | 13 | 296 | 3.2 | 6.4 | 0.00 | 0.00 | 0.00 | 68 | 1024.3 |